Vorticity
7 9 9 10 11 11 11 9 8 9 10 11 10 10 10 9 8 8 7 10 13 3 10 4 4 3 4 4 5 6 5 3 3 7 6 8 6 17 30 8 2 5 3
9 10 10 10 10 10 11 11 12 12 11 10 8 9 9 10 11 9 8 8 8 14 4 9 7 3 3 3 4 4 5 6 3 5 7 9 5 8 30 3 14 4 3
9 8 7 8 9 10 10 10 10 11 11 11 14 16 11 8 9 11 11 10 11 8 12 9 7 6 4 2 6 8 1 7 3 5 9 10 7 4 11 25 -2 13 -2
8 9 10 10 11 11 10 10 11 8 10 9 10 11 14 16 14 10 11 10 11 14 10 11 8 10 14 3 6 6 11 4 4 3 5 7 8 8 10 9 10 5 3
8 8 8 9 10 11 11 12 10 10 10 10 11 14 12 13 14 14 14 10 10 9 14 10 14 1 3 16 6 5 8 4 6 4 5 7 6 9 8 7 5 11 35
8 8 8 7 8 9 10 11 9 10 13 12 11 11 15 15 12 16 12 12 11 11 8 14 10 14 -1 -2 16 8 11 5 3 5 6 4 8 5 9 14 3 3 2
9 8 7 8 9 9 10 10 9 16 10 10 11 16 21 17 16 15 16 16 11 10 11 9 13 11 14 -0 5 8 4 10 2 5 7 4 6 6 4 9 10 4 0
7 7 8 8 9 9 9 11 16 10 14 21 25 22 22 22 25 18 19 20 21 16 14 14 14 13 10 12 -1 7 8 5 3 4 4 4 8 7 5 3 14 12 3
8 8 8 8 8 10 10 14 12 9 24 20 18 17 22 18 23 21 18 16 18 19 16 16 16 15 14 10 8 -3 9 10 -13 17 5 7 12 5 7 5 5 13 19
8 8 8 8 9 10 10 12 12 18 24 17 9 10 11 11 15 29 23 15 13 14 15 15 16 16 12 12 12 7 3 3 12 6 16 14 9 4 6 7 4 7 6
9 8 8 9 9 10 11 11 15 17 20 14 10 13 16 10 9 8 22 16 14 14 11 18 18 17 16 10 8 13 1 6 -1 18 -10 -22 16 6 5 7 6 5 7
9 9 10 10 10 10 8 8 13 18 17 12 10 12 12 13 13 17 17 12 22 18 12 16 16 15 19 15 7 8 8 10 7 16 -12 13 -3 4 15 2 7 6 4
10 10 10 10 10 11 3 5 7 11 17 22 14 12 14 10 12 14 14 19 19 17 19 18 14 11 19 16 12 9 9 7 8 14 -6 24 -19 53 33 -1 7 7 6
10 11 11 11 11 12 11 2 -1 7 5 10 14 19 18 21 10 15 12 13 20 23 21 26 21 16 13 20 15 14 11 6 7 -1 16 -7 -8 5 32 -23 21 7 10
10 11 11 10 10 9 11 11 10 4 9 4 -0 4 11 18 21 12 9 14 16 19 20 14 31 20 16 13 16 14 23 9 6 9 4 17 16 30 37 12 -21 -21 14
11 11 11 10 10 9 9 9 7 9 4 1 8 9 3 8 15 28 26 8 6 14 14 23 22 25 17 17 9 17 7 20 14 13 22 9 3 2 20 6 24 -14 12
11 11 10 10 9 9 8 8 9 9 7 9 8 4 6 3 2 7 22 22 18 9 20 6 24 25 23 19 15 11 12 7 19 13 7 18 8 7 12 21 16 15 34
10 10 10 10 9 9 8 8 8 8 9 8 8 7 5 2 5 -2 9 18 23 21 3 25 7 15 25 18 23 16 -23 25 19 14 15 20 14 9 26 7 24 -22 17
10 9 10 9 10 9 10 9 9 8 9 8 9 8 8 10 6 3 4 2 13 31 21 18 29 -3 23 29 24 24 -7 0 5 1 -0 16 20 10 6 14 4 13 34
9 9 9 9 10 9 9 9 10 11 11 11 11 10 9 9 7 8 8 5 1 9 34 14 47 7 14 7 23 15 -30 12 -5 64 -6 7 13 14 5 25 -18 23 20
9 8 8 9 7 8 8 10 10 7 7 7 9 11 11 11 11 8 10 6 4 4 2 37 16 29 15 35 -17 13 1 6 22 1 19 12 7 2 8 22 -14 19 -17
7 7 9 7 8 8 8 6 5 8 8 7 7 7 8 10 12 10 10 10 7 3 7 -7 29 24 16 27 16 -9 52 -32 -8 -39 65 17 6 2 -5 -23 18 7 4
8 12 9 8 8 9 9 9 7 5 7 9 9 9 9 9 9 10 10 12 10 10 10 0 10 20 34 23 41 41 4 2 0 12 23 4 15 27 15 0 -6 -8 -5
11 5 7 9 10 9 7 6 7 9 9 9 9 10 9 9 9 10 11 9 9 10 9 11 9 5 -4 33 20 25 22 27 17 23 35 28 29 8 24 15 15 11 16
9 9 10 10 8 7 8 9 10 9 9 9 10 9 9 10 11 10 11 11 12 8 9 11 14 14 8 1 10 17 17 23 14 16 19 9 13 28 11 10 8 9 5
9 9 9 8 7 7 8 8 8 8 9 9 9 10 10 9 11 11 11 12 11 12 10 12 13 12 13 8 6 5 9 14 16 22 17 7 15 9 6 1 14 12 13
Height
3100 3097 3093 3090 3087 3085 3082 3080 3077 3076 3074 3072 3071 3070 3071 3071 3072 3072 3074 3078 3080 3084 3086 3088 3091 3093 3096 3098 3099 3101 3104 3106 3108 3109 3108 3109 3111 3111 3114 3117 3122 3124 3130
3092 3089 3086 3082 3079 3076 3073 3070 3068 3066 3064 3063 3062 3060 3059 3060 3060 3061 3062 3066 3070 3073 3076 3079 3083 3085 3088 3090 3093 3094 3097 3100 3103 3104 3105 3105 3107 3108 3110 3112 3116 3120 3123
3085 3081 3078 3075 3072 3068 3064 3061 3058 3056 3054 3053 3051 3050 3048 3048 3048 3049 3051 3053 3058 3062 3065 3069 3073 3077 3079 3083 3085 3088 3088 3093 3096 3097 3100 3100 3102 3104 3105 3108 3112 3116 3118
3077 3073 3070 3067 3064 3060 3056 3053 3050 3047 3044 3042 3040 3039 3038 3036 3037 3038 3038 3040 3044 3048 3054 3057 3063 3067 3069 3073 3078 3079 3081 3085 3089 3091 3093 3096 3097 3099 3102 3104 3107 3111 3113
3070 3067 3063 3060 3057 3053 3049 3044 3041 3037 3034 3031 3028 3027 3025 3024 3024 3024 3025 3027 3030 3034 3040 3046 3049 3056 3059 3062 3067 3071 3073 3076 3081 3084 3087 3089 3092 3094 3097 3100 3103 3106 3109
3065 3061 3057 3053 3049 3046 3041 3037 3033 3029 3023 3018 3016 3014 3012 3010 3009 3011 3012 3013 3017 3021 3026 3033 3037 3041 3048 3052 3056 3061 3064 3068 3071 3075 3079 3082 3085 3088 3091 3093 3096 3101 3106
3060 3055 3051 3047 3043 3038 3033 3029 3024 3019 3014 3007 3002 3001 2999 2996 2996 2997 2999 3000 3003 3008 3013 3019 3025 3030 3035 3040 3045 3050 3055 3058 3061 3065 3070 3074 3077 3081 3085 3088 3091 3094 3098
3053 3049 3045 3040 3036 3031 3026 3021 3016 3011 3006 2997 2992 2988 2988 2989 2987 2985 2986 2988 2991 2995 3000 3006 3012 3018 3024 3028 3033 3038 3043 3048 3051 3054 3060 3065 3069 3073 3077 3081 3085 3087 3090
3047 3042 3038 3033 3029 3024 3020 3015 3008 3004 3000 2993 2985 2980 2978 2978 2979 2978 2977 2978 2980 2983 2988 2993 2999 3005 3011 3016 3021 3026 3032 3036 3041 3043 3049 3055 3061 3065 3069 3073 3077 3080 3084
3040 3036 3033 3029 3024 3020 3015 3009 3003 3000 2993 2989 2983 2977 2974 2970 2968 2971 2973 2972 2972 2974 2978 2981 2986 2992 2999 3004 3010 3014 3020 3026 3030 3034 3039 3044 3050 3055 3060 3065 3069 3073 3077
3035 3032 3029 3024 3019 3015 3010 3005 3000 2995 2990 2983 2977 2974 2973 2970 2965 2962 2964 2969 2966 2966 2969 2972 2976 2980 2986 2993 2999 3004 3008 3014 3019 3022 3028 3032 3040 3044 3050 3055 3058 3064 3069
3032 3028 3024 3019 3015 3011 3007 3002 2998 2993 2987 2979 2973 2969 2968 2965 2962 2958 2958 2958 2961 2962 2961 2964 2966 2970 2975 2980 2987 2993 2997 3003 3007 3012 3010 3012 3025 3029 3038 3045 3049 3053 3060
3028 3024 3020 3015 3012 3008 3004 3000 2996 2992 2985 2978 2971 2967 2965 2962 2958 2955 2951 2951 2949 2955 2955 2955 2957 2960 2965 2969 2973 2981 2985 2991 2996 3001 3005 3010 3014 3020 3013 3034 3041 3045 3049
3024 3021 3016 3011 3008 3005 3002 2998 2996 2991 2985 2978 2972 2968 2964 2960 2956 2951 2947 2944 2944 2944 2947 2950 2949 2951 2955 2958 2962 2966 2972 2978 2985 2991 2994 2998 3003 3011 3008 3010 3028 3033 3040
3019 3016 3013 3009 3005 3001 2999 2996 2993 2989 2983 2978 2974 2968 2963 2958 2954 2950 2946 2941 2937 2935 2939 2946 2942 2941 2944 2948 2953 2957 2962 2966 2973 2980 2984 2990 2993 2999 3005 3006 3010 3018 3029
3016 3012 3009 3007 3003 2999 2996 2993 2991 2987 2982 2977 2972 2968 2963 2958 2953 2949 2944 2940 2937 2934 2931 2935 2935 2934 2934 2939 2944 2950 2953 2957 2963 2970 2975 2981 2985 2991 2996 2997 3001 3006 3016
3012 3009 3006 3004 3001 2997 2994 2991 2988 2984 2980 2976 2970 2967 2962 2957 2953 2948 2943 2939 2935 2932 2930 2928 2927 2926 2928 2930 2934 2941 2945 2949 2954 2961 2965 2970 2975 2980 2984 2987 2991 2995 3004
3010 3007 3004 3002 2999 2995 2992 2989 2985 2982 2978 2974 2970 2966 2961 2957 2952 2947 2942 2936 2932 2928 2927 2924 2921 2921 2921 2922 2926 2932 2940 2943 2947 2952 2955 2959 2964 2970 2975 2978 2982 2987 2993
3007 3004 3002 3000 2997 2994 2990 2987 2983 2979 2975 2972 2968 2964 2960 2955 2952 2947 2942 2936 2930 2925 2921 2919 2916 2916 2916 2917 2919 2925 2932 2934 2938 2943 2947 2951 2955 2961 2967 2972 2977 2978 2982
3005 3002 3000 2998 2995 2992 2989 2985 2982 2978 2974 2970 2966 2962 2958 2954 2950 2946 2942 2937 2931 2925 2920 2916 2914 2914 2914 2915 2917 2921 2925 2927 2929 2933 2939 2942 2946 2951 2956 2961 2965 2968 2973
3003 3001 2998 2996 2994 2991 2988 2984 2981 2977 2974 2969 2965 2961 2956 2952 2948 2944 2941 2936 2931 2926 2920 2915 2912 2910 2909 2910 2912 2916 2914 2920 2922 2925 2929 2933 2938 2941 2946 2952 2951 2959 2963
3000 2999 2997 2995 2993 2990 2987 2984 2981 2977 2973 2969 2965 2960 2956 2951 2947 2943 2939 2935 2931 2926 2921 2916 2911 2908 2906 2905 2907 2908 2905 2911 2915 2912 2909 2920 2927 2932 2936 2939 2943 2947 2951
2998 2996 2995 2993 2991 2988 2985 2982 2979 2975 2971 2967 2963 2959 2954 2950 2946 2942 2938 2934 2930 2925 2920 2916 2913 2909 2906 2903 2899 2902 2904 2904 2906 2909 2910 2910 2914 2920 2923 2928 2932 2937 2942
2995 2994 2992 2990 2989 2986 2983 2980 2977 2973 2969 2965 2961 2957 2953 2949 2945 2941 2937 2933 2930 2925 2921 2917 2913 2910 2906 2904 2899 2898 2899 2899 2900 2903 2903 2903 2906 2911 2912 2911 2920 2924 2929
2992 2991 2989 2988 2986 2984 2981 2978 2975 2971 2967 2963 2960 2956 2952 2948 2943 2939 2935 2931 2927 2923 2919 2916 2913 2909 2907 2903 2901 2900 2897 2896 2896 2897 2897 2898 2900 2903 2905 2908 2911 2914 2919
2989 2988 2987 2986 2984 2981 2979 2976 2973 2969 2965 2962 2958 2954 2950 2946 2942 2939 2935 2930 2926 2923 2917 2914 2912 2910 2908 2906 2904 2899 2897 2897 2894 2893 2893 2895 2895 2896 2900 2902 2905 2906 2908